VK4VP-5 Buderim QLD AU current weather conditions

sailwx.info

Wind from 184 at 0 knots gusting 5

Air temperature 25.6° C
Dewpoint 21.6° C

Last reported at 2016-May-03 03:44 UTC.
Time now 2016-May-03 04:56 UTC

Location: S 26°42' E 153°05'.
View on Google Maps.

See reports from other nearby stations

  
Tides and Currents Weather Stations Pressure Air Temp Water Temp Dewpoint Dewpoint Depression Visibility Wind Speed Wind Dir Waves Ship Positions
date/time (UTC)wind fromknots sea level pressurealtimeterstation pressurevisibilityair tempwater tempwave heightnotes
2016-May-03 03:44 184 0 gusting 5 25.6
2016-May-03 03:34 191 26.1
2016-May-03 03:24 192 25.6
2016-May-03 03:14 193 25.0
2016-May-03 03:04 193 25.0
2016-May-03 02:54 193 25.0
2016-May-03 02:44 193 0 gusting 5 25.6
2016-May-03 02:34 193 25.0
2016-May-03 02:24 193 25.6
2016-May-03 02:14 193 25.6
2016-May-03 02:04 193 25.6
2016-May-03 01:54 192 0 gusting 6 25.0
2016-May-03 01:44 189 1 gusting 6 24.4
2016-May-03 01:34 189 0 gusting 5 24.4
2016-May-03 01:24 189 24.4
2016-May-03 01:14 189 24.4
2016-May-03 01:04 189 24.4
2016-May-03 00:54 189 24.4
2016-May-03 00:44 189 24.4
2016-May-03 00:34 189 24.4
2016-May-03 00:24 189 24.4
2016-May-03 00:14 189 24.4
2016-May-03 00:04 189 23.9
2016-May-02 23:54 189 23.3
2016-May-02 23:44 189 22.8
2016-May-02 23:34 189 22.8
2016-May-02 23:24 189 22.2
2016-May-02 23:14 22.2
2016-May-02 23:04 191 21.7
2016-May-02 22:54 191 21.7
2016-May-02 22:44 21.7
2016-May-02 22:34 191 21.7
2016-May-02 22:24 190 21.1
2016-May-02 22:14 190 21.1
2016-May-02 22:04 189 21.1
2016-May-02 21:54 189 20.6
2016-May-02 21:44 189 20.0
2016-May-02 21:34 191 20.0
2016-May-02 21:24 20.0
2016-May-02 21:14 19.4
2016-May-02 21:04 19.4
2016-May-02 20:54 189 19.4
2016-May-02 20:44 188 19.4
2016-May-02 20:34 19.4
2016-May-02 20:24 20.0
2016-May-02 20:14 20.0
2016-May-02 20:04 20.0
2016-May-02 19:54 20.0
2016-May-02 19:44 20.0
2016-May-02 19:34 20.0
2016-May-02 19:24 20.0
2016-May-02 19:14 20.0
2016-May-02 19:04 20.0
2016-May-02 18:54 20.0
2016-May-02 18:44 20.0
2016-May-02 18:34 188 20.0
2016-May-02 18:24 188 20.0
2016-May-02 18:14 188 20.0
2016-May-02 18:04 188 20.0
2016-May-02 17:54 20.0
2016-May-02 17:44 188 20.0
2016-May-02 17:34 20.0
2016-May-02 17:24 20.0
2016-May-02 17:14 20.0
2016-May-02 17:04 20.6
2016-May-02 16:54 20.6
2016-May-02 16:44 20.6
2016-May-02 16:34 20.6
2016-May-02 16:24 20.6
2016-May-02 16:14 20.6
2016-May-02 16:04 20.6
2016-May-02 15:54 20.6
2016-May-02 15:44 20.6
2016-May-02 15:34 188 20.6
2016-May-02 15:24 188 0 gusting 8 20.6
2016-May-02 15:14 188 1 gusting 7 21.1
2016-May-02 15:04 188 0 gusting 5 21.1
2016-May-02 14:54 185 2 gusting 9 21.7
2016-May-02 14:44 138 1 gusting 8 22.2
2016-May-02 14:34 122 1 gusting 6 22.2
2016-May-02 14:24 123 22.2
2016-May-02 14:14 123 1 gusting 6 22.2
2016-May-02 14:04 123 22.2
2016-May-02 13:54 22.2
2016-May-02 13:44 122 22.2
2016-May-02 13:34 122 22.2
2016-May-02 13:24 122 22.2
2016-May-02 13:14 22.2
2016-May-02 13:04 22.2
2016-May-02 12:54 22.2
2016-May-02 12:44 22.2
2016-May-02 12:34 22.2
2016-May-02 12:24 22.2
2016-May-02 12:14 22.2
2016-May-02 12:04 22.2
2016-May-02 11:54 123 22.2
2016-May-02 11:44 22.2
2016-May-02 11:34 22.2
2016-May-02 11:24 22.2
2016-May-02 11:14 122 22.2
2016-May-02 11:04 22.2
2016-May-02 10:54 22.2
2016-May-02 10:44 22.2
2016-May-02 10:34 22.2
2016-May-02 10:24 22.2
2016-May-02 10:14 22.2
2016-May-02 10:04 22.2
2016-May-02 09:54 22.2
2016-May-02 09:44 22.2
2016-May-02 09:34 22.2
2016-May-02 09:24 22.2
2016-May-02 09:14 22.8
2016-May-02 09:04 22.8
2016-May-02 08:54 123 22.8
2016-May-02 08:44 22.8
2016-May-02 08:34 22.8
2016-May-02 08:24 22.8
2016-May-02 08:14 23.3
2016-May-02 08:04 23.3
2016-May-02 07:54 23.3
2016-May-02 07:44 23.3
2016-May-02 07:34 23.3
2016-May-02 07:24 23.3
2016-May-02 07:14 23.9
2016-May-02 07:04 123 23.9
2016-May-02 06:54 123 23.9
2016-May-02 06:44 24.4
2016-May-02 06:34 123 24.4
2016-May-02 06:24 123 24.4
2016-May-02 06:14 124 24.4
2016-May-02 06:04 159 24.4
2016-May-02 05:54 159 24.4
2016-May-02 05:44 159 24.4
2016-May-02 05:34 159 24.4
2016-May-02 05:24 159 25.0
2016-May-02 05:14 159 25.0
2016-May-02 05:04 159 25.6
2016-May-02 04:54 159 25.6
2016-May-02 04:44 159 25.0
2016-May-02 04:34 159 25.0
2016-May-02 04:24 159 25.0
2016-May-02 04:14 159 25.0
2016-May-02 04:04 159 0 gusting 6 25.6
2016-May-02 03:54 160 0 gusting 8 25.6
2016-May-02 03:44 167 0 gusting 6 25.6
2016-May-02 03:34 174 1 gusting 8 25.6
2016-May-02 03:24 176 0 gusting 5 25.6
2016-May-02 03:14 189 1 gusting 8 25.6
2016-May-02 03:04 201 25.6
2016-May-02 02:54 201 0 gusting 6 25.6
2016-May-02 02:44 203 1 gusting 8 25.6
2016-May-02 02:34 210 0 gusting 6 26.1
2016-May-02 02:24 214 26.1
2016-May-02 02:14 217 0 gusting 7 26.1
2016-May-02 01:52 241 0 gusting 6 25.6
2016-May-02 01:12 241 25.6
2016-May-02 01:02 241 25.0
2016-May-02 00:52 240 0 gusting 6 24.4
2016-May-02 00:42 240 0 gusting 6 24.4
2016-May-02 00:32 241 1 gusting 8 24.4
2016-May-02 00:22 241 1 gusting 6 24.4
2016-May-02 00:12 241 1 gusting 7 24.4
2016-May-02 00:02 241 0 gusting 7 23.9
2016-May-01 23:52 241 0 gusting 5 23.3
2016-May-01 23:42 240 22.8
2016-May-01 23:32 241 22.8
2016-May-01 23:22 245 0 gusting 7 22.2
2016-May-01 23:12 271 1 gusting 7 22.2
2016-May-01 23:02 259 0 gusting 5 21.7
2016-May-01 22:52 215 0 gusting 5 21.7
2016-May-01 22:42 215 0 gusting 3 21.7
2016-May-01 22:32 215 0 gusting 5 21.1
2016-May-01 22:22 214 21.1
2016-May-01 22:12 214 20.6
2016-May-01 22:02 214 20.6
2016-May-01 21:52 214 20.6
2016-May-01 21:42 213 20.0
2016-May-01 21:32 214 19.4
2016-May-01 21:22 214 19.4
2016-May-01 21:12 214 19.4
2016-May-01 21:02 19.4
2016-May-01 20:52 18.9
2016-May-01 20:42 18.9
2016-May-01 20:32 214 19.4
2016-May-01 20:22 214 18.9
2016-May-01 20:12 214 0 gusting 3 19.4
2016-May-01 20:02 214 0 gusting 5 19.4
2016-May-01 19:52 214 19.4
2016-May-01 19:42 214 19.4
2016-May-01 19:32 214 19.4
2016-May-01 19:22 214 18.9
2016-May-01 19:12 214 19.4
2016-May-01 19:02 214 19.4
2016-May-01 18:52 19.4
2016-May-01 18:42 19.4
2016-May-01 18:32 19.4
2016-May-01 18:22 19.4
2016-May-01 18:12 19.4
2016-May-01 18:02 214 19.4
2016-May-01 17:52 214 19.4
2016-May-01 17:42 214 19.4
2016-May-01 17:32 215 19.4
2016-May-01 17:22 19.4
2016-May-01 17:12 19.4
2016-May-01 17:02 19.4
2016-May-01 16:52 214 19.4
2016-May-01 16:42 214 19.4
2016-May-01 16:32 19.4
2016-May-01 16:22 19.4
2016-May-01 16:12 19.4
2016-May-01 16:02 19.4
2016-May-01 15:52 19.4
2016-May-01 15:42 19.4
2016-May-01 15:32 19.4
2016-May-01 15:22 19.4
2016-May-01 15:12 214 19.4
2016-May-01 15:02 19.4
2016-May-01 14:52 19.4
2016-May-01 14:42 213 19.4
2016-May-01 14:32 19.4
2016-May-01 14:22 20.0
2016-May-01 14:12 20.0
2016-May-01 14:02 20.0
2016-May-01 13:52 20.0
2016-May-01 13:42 20.0
2016-May-01 13:32 20.0
2016-May-01 13:22 20.0
2016-May-01 13:12 20.0
2016-May-01 13:02 215 20.0
2016-May-01 12:52 214 20.0
2016-May-01 12:42 214 20.0
2016-May-01 12:32 20.6
2016-May-01 12:22 214 20.6
2016-May-01 12:12 214 20.6
2016-May-01 12:02 214 20.0
2016-May-01 11:52 214 20.0
2016-May-01 11:42 214 20.0
2016-May-01 11:32 215 20.0
2016-May-01 11:22 20.0
2016-May-01 11:12 214 20.0
2016-May-01 11:02 214 20.0
2016-May-01 10:52 214 20.0
2016-May-01 10:42 20.6
2016-May-01 10:32 20.6
2016-May-01 10:22 20.6
2016-May-01 10:12 20.6
2016-May-01 10:02 20.6
2016-May-01 09:52 20.6
2016-May-01 09:42 20.6
2016-May-01 09:32 20.6
2016-May-01 09:22 20.6
2016-May-01 09:12 20.6
2016-May-01 09:02 21.1
2016-May-01 08:52 21.1
2016-May-01 08:42 21.1
2016-May-01 08:32 21.1
2016-May-01 08:22 21.7
2016-May-01 08:12 21.7
2016-May-01 08:02 215 21.7
2016-May-01 07:52 214 21.7
2016-May-01 07:42 214 21.7
2016-May-01 07:32 214 21.7
2016-May-01 07:22 214 21.7
2016-May-01 07:12 214 21.7
2016-May-01 07:02 214 21.7
2016-May-01 06:52 214 21.7
2016-May-01 06:42 214 22.2
2016-May-01 06:32 214 22.2
2016-May-01 06:22 214 22.2
2016-May-01 06:12 214 0 gusting 6 22.2
2016-May-01 06:02 214 0 gusting 6 22.2
2016-May-01 05:52 214 0 gusting 5 22.2
2016-May-01 05:42 214 2 gusting 8 22.2
2016-May-01 05:32 215 0 gusting 5 22.2
2016-May-01 05:22 199 1 gusting 7 22.2
2016-May-01 05:12 191 3 gusting 9 22.2
2016-May-01 05:02 186 2 gusting 8 22.2
2016-May-01 04:52 189 2 gusting 8 22.2
2016-May-01 04:42 188 2 gusting 10 22.2
2016-May-01 04:32 187 2 gusting 8 22.2
2016-May-01 04:22 186 1 gusting 8 22.2
2016-May-01 04:12 185 1 gusting 7 22.8
2016-May-01 04:02 187 1 gusting 8 22.8